User: anonymous   Login
Location: Great Northern Moose Lodge
(44.6765°N, 71.1811°W)
Time: 17:03:18
(UTC-04:00)
Language:

Terra - Orbit

View from above orbital plane
View from above orbital plane
View from above satellite
View from above satellite

Ground track
Ground track

The orbit data is extracted from the following two-line orbital elements,

1 25994U 99068A   15186.41592884  .00000183  00000-0  50675-4 0  9992
2 25994 098.2110 260.7234 0001627 103.3925 256.7452 14.57102358826873
Epoch (UTC): 05 July 2015 09:58:56
Eccentricity: 0.0001627
inclination: 98.2110°
perigee height: 701 km
apogee height: 704 km
right ascension of ascending node: 260.7234°
argument of perigee: 103.3925°
revolutions per day: 14.57102358
mean anomaly at epoch: 256.7452°
orbit number at epoch: 82687

The dashed part of the orbit path shows where the satellite is in the earth's shadow,  

DLR